When you browse on this site, cookies collect data to enhance your experience and personalize the content and advertising you see.
Visit our Privacy Policy to learn more. By continuing to use the site, you agree to this use of cookies and data.
  • Em Portugal
  • Lista de países
  • Para 7 dias
  • Temperatura da água
  • Mapas de satélite
  • Mapa do tempo
  • Widgets de tempo
  • user-avatar
    Iniciar Sessão

    Previsão horária em Korboniec

    Hoje, 16 Janeiro, Quarta-feira

    Tempo Temperatura Precipitação Vento Pressão Humidade
    00:00 -1°C° 0.2 mm 8 m/s 735 mmHg 91%
    01:00 0°C° 0 mm 7 m/s 735 mmHg 88%
    02:00 -1°C° 0 mm 7 m/s 736 mmHg 87%
    03:00 -1°C° 0 mm 7 m/s 737 mmHg 86%
    04:00 -2°C° 0 mm 6 m/s 738 mmHg 85%
    05:00 -1°C° 0 mm 5 m/s 739 mmHg 87%
    06:00 0°C° 0 mm 3 m/s 739 mmHg 89%
    07:00 -1°C° 0 mm 2 m/s 740 mmHg 91%
    08:00 -1°C° 0.1 mm 2 m/s 740 mmHg 92%
    09:00 +1°C° 0.1 mm 2 m/s 741 mmHg 94%
    10:00 +1°C° 0.1 mm 2 m/s 741 mmHg 96%
    11:00 +1°C° 0.2 mm 2 m/s 741 mmHg 97%
    12:00 +1°C° 0.2 mm 3 m/s 741 mmHg 98%
    13:00 +1°C° 0.2 mm 3 m/s 741 mmHg 99%
    14:00 0°C° 0.1 mm 4 m/s 741 mmHg 97%
    15:00 +1°C° 0.1 mm 4 m/s 741 mmHg 96%
    16:00 +1°C° 0.1 mm 5 m/s 741 mmHg 95%
    17:00 +1°C° 0 mm 5 m/s 741 mmHg 95%
    18:00 +1°C° 0 mm 5 m/s 740 mmHg 95%
    19:00 +1°C° 0 mm 5 m/s 740 mmHg 95%
    20:00 +1°C° 0 mm 5 m/s 740 mmHg 95%
    21:00 +1°C° 0 mm 5 m/s 740 mmHg 95%
    22:00 +1°C° 0 mm 5 m/s 740 mmHg 94%
    23:00 +1°C° 0 mm 6 m/s 740 mmHg 94%

    Amanhã, 17 Janeiro, Quinta-feira

    Tempo Temperatura Precipitação Vento Pressão Humidade
    00:00 -1°C° 0 mm 6 m/s 739 mmHg 93%
    01:00 -1°C° 0 mm 6 m/s 739 mmHg 92%
    02:00 -1°C° 0.1 mm 6 m/s 738 mmHg 91%
    03:00 -1°C° 0.1 mm 6 m/s 737 mmHg 90%
    04:00 -1°C° 0.1 mm 7 m/s 737 mmHg 89%
    05:00 -1°C° 0 mm 7 m/s 736 mmHg 87%
    06:00 -2°C° 0 mm 7 m/s 736 mmHg 84%
    07:00 -2°C° 0 mm 7 m/s 735 mmHg 81%
    08:00 -1°C° 0 mm 8 m/s 735 mmHg 80%
    09:00 -1°C° 0 mm 8 m/s 735 mmHg 79%
    10:00 0°C° 0 mm 8 m/s 736 mmHg 79%
    11:00 0°C° 0 mm 8 m/s 736 mmHg 79%
    12:00 0°C° 0 mm 8 m/s 736 mmHg 80%
    13:00 +1°C° 0 mm 8 m/s 736 mmHg 80%
    14:00 0°C° 0 mm 7 m/s 736 mmHg 80%
    15:00 0°C° 0 mm 7 m/s 736 mmHg 80%
    16:00 0°C° 0 mm 7 m/s 736 mmHg 80%
    17:00 +1°C° 0 mm 6 m/s 736 mmHg 81%
    18:00 +1°C° 0 mm 6 m/s 736 mmHg 82%
    19:00 +1°C° 0 mm 6 m/s 736 mmHg 83%
    20:00 0°C° 0.6 mm 7 m/s 736 mmHg 83%
    21:00 0°C° 0.6 mm 8 m/s 736 mmHg 84%
    22:00 0°C° 0.6 mm 8 m/s 736 mmHg 85%
    23:00 -1°C° 0 mm 8 m/s 736 mmHg 81%

    Depois de amanhã, 18 Janeiro, Sexta-feira

    Tempo Temperatura Precipitação Vento Pressão Humidade
    00:00 -1°C° 0 mm 8 m/s 736 mmHg 77%
    01:00 -2°C° 0 mm 8 m/s 737 mmHg 73%
    02:00 -4°C° 0 mm 8 m/s 737 mmHg 73%
    03:00 -4°C° 0 mm 9 m/s 737 mmHg 72%
    04:00 -4°C° 0 mm 9 m/s 737 mmHg 72%
    05:00 -4°C° 0.1 mm 9 m/s 737 mmHg 76%
    06:00 -5°C° 0.1 mm 10 m/s 738 mmHg 79%
    07:00 -5°C° 0.1 mm 10 m/s 738 mmHg 83%
    08:00 -4°C° 0.4 mm 9 m/s 739 mmHg 83%
    09:00 -4°C° 0.4 mm 8 m/s 740 mmHg 83%
    10:00 -4°C° 0.4 mm 8 m/s 742 mmHg 83%
    11:00 -4°C° 0.1 mm 8 m/s 743 mmHg 79%
    12:00 -4°C° 0.1 mm 8 m/s 744 mmHg 74%
    13:00 -4°C° 0.1 mm 8 m/s 745 mmHg 70%
    14:00 -4°C° 0 mm 6 m/s 746 mmHg 71%
    15:00 -4°C° 0 mm 5 m/s 747 mmHg 73%
    16:00 -4°C° 0 mm 4 m/s 748 mmHg 74%
    17:00 -4°C° 0 mm 4 m/s 749 mmHg 75%
    18:00 -4°C° 0 mm 4 m/s 749 mmHg 77%
    19:00 -4°C° 0 mm 4 m/s 750 mmHg 78%
    20:00 -4°C° 0 mm 4 m/s 750 mmHg 78%
    21:00 -4°C° 0 mm 4 m/s 751 mmHg 78%
    22:00 -4°C° 0 mm 4 m/s 751 mmHg 78%
    23:00 -4°C° 0 mm 4 m/s 751 mmHg 81%

    19 Janeiro, Sábado

    Tempo Temperatura Precipitação Vento Pressão Humidade
    00:00 -4°C° 0 mm 4 m/s 752 mmHg 83%
    01:00 -4°C° 0 mm 4 m/s 752 mmHg 85%
    02:00 -4°C° 0 mm 4 m/s 752 mmHg 85%
    03:00 -4°C° 0 mm 4 m/s 751 mmHg 86%
    04:00 -5°C° 0 mm 5 m/s 751 mmHg 86%
    05:00 -5°C° 0 mm 5 m/s 751 mmHg 85%
    06:00 -5°C° 0 mm 5 m/s 751 mmHg 85%
    07:00 -5°C° 0 mm 5 m/s 751 mmHg 85%
    08:00 -5°C° 0 mm 5 m/s 752 mmHg 84%
    09:00 -4°C° 0 mm 5 m/s 752 mmHg 83%
    10:00 -3°C° 0 mm 4 m/s 752 mmHg 82%
    11:00 -3°C° 0 mm 4 m/s 752 mmHg 82%
    12:00 -2°C° 0 mm 4 m/s 752 mmHg 82%
    13:00 -1°C° 0 mm 3 m/s 752 mmHg 81%
    14:00 -1°C° 0 mm 3 m/s 752 mmHg 83%
    15:00 -2°C° 0 mm 3 m/s 752 mmHg 86%
    16:00 -3°C° 0 mm 2 m/s 752 mmHg 88%
    17:00 -3°C° 0 mm 2 m/s 752 mmHg 88%
    18:00 -3°C° 0 mm 2 m/s 752 mmHg 89%
    19:00 -3°C° 0 mm 2 m/s 752 mmHg 89%
    20:00 -3°C° 0 mm 2 m/s 752 mmHg 90%
    21:00 -3°C° 0 mm 2 m/s 752 mmHg 90%
    22:00 -3°C° 0 mm 2 m/s 752 mmHg 91%
    23:00 -3°C° 0 mm 2 m/s 752 mmHg 90%

    20 Janeiro, Domingo

    Tempo Temperatura Precipitação Vento Pressão Humidade
    00:00 -3°C° 0 mm 2 m/s 752 mmHg 90%
    01:00 -2°C° 0 mm 2 m/s 752 mmHg 90%
    02:00 -2°C° 0 mm 2 m/s 751 mmHg 90%
    03:00 -2°C° 0 mm 2 m/s 751 mmHg 90%
    04:00 -2°C° 0 mm 2 m/s 751 mmHg 90%
    05:00 -3°C° 0 mm 2 m/s 751 mmHg 90%
    06:00 -4°C° 0 mm 3 m/s 751 mmHg 89%
    07:00 -4°C° 0 mm 3 m/s 751 mmHg 89%
    08:00 -4°C° 0 mm 3 m/s 751 mmHg 87%
    09:00 -3°C° 0 mm 4 m/s 751 mmHg 85%
    10:00 -3°C° 0 mm 4 m/s 752 mmHg 82%
    11:00 -2°C° 0 mm 4 m/s 751 mmHg 82%
    12:00 -2°C° 0 mm 5 m/s 751 mmHg 82%
    13:00 -2°C° 0 mm 5 m/s 751 mmHg 81%
    14:00 -2°C° 0.1 mm 4 m/s 751 mmHg 82%
    15:00 -2°C° 0.1 mm 4 m/s 751 mmHg 83%
    16:00 -2°C° 0.1 mm 3 m/s 752 mmHg 84%
    17:00 -2°C° 0 mm 3 m/s 752 mmHg 83%
    18:00 -4°C° 0 mm 3 m/s 753 mmHg 83%
    19:00 -5°C° 0 mm 3 m/s 753 mmHg 83%
    20:00 -5°C° 0 mm 3 m/s 754 mmHg 83%
    21:00 -5°C° 0 mm 3 m/s 754 mmHg 83%
    22:00 -5°C° 0 mm 3 m/s 755 mmHg 84%
    23:00 -5°C° 0 mm 3 m/s 755 mmHg 84%

    21 Janeiro, Segunda-feira

    Tempo Temperatura Precipitação Vento Pressão Humidade
    00:00 -6°C° 0 mm 3 m/s 756 mmHg 84%
    01:00 -6°C° 0 mm 3 m/s 756 mmHg 85%
    02:00 -6°C° 0 mm 3 m/s 756 mmHg 85%
    03:00 -6°C° 0 mm 3 m/s 756 mmHg 85%
    04:00 -6°C° 0 mm 3 m/s 757 mmHg 85%
    05:00 -6°C° 0 mm 3 m/s 757 mmHg 86%
    06:00 -6°C° 0 mm 3 m/s 757 mmHg 86%
    07:00 -6°C° 0 mm 3 m/s 758 mmHg 86%
    08:00 -6°C° 0 mm 3 m/s 758 mmHg 84%
    09:00 -5°C° 0 mm 3 m/s 759 mmHg 81%
    10:00 -5°C° 0 mm 4 m/s 759 mmHg 79%
    11:00 -4°C° 0 mm 4 m/s 759 mmHg 77%
    12:00 -3°C° 0 mm 4 m/s 759 mmHg 75%
    13:00 -3°C° 0 mm 4 m/s 760 mmHg 72%
    14:00 -2°C° 0 mm 3 m/s 760 mmHg 76%
    15:00 -4°C° 0 mm 3 m/s 760 mmHg 79%
    16:00 -4°C° 0 mm 2 m/s 760 mmHg 83%
    17:00 -4°C° 0 mm 2 m/s 760 mmHg 82%
    18:00 -4°C° 0 mm 2 m/s 760 mmHg 82%
    19:00 -4°C° 0 mm 2 m/s 760 mmHg 82%
    20:00 -4°C° 0 mm 2 m/s 760 mmHg 81%
    21:00 -6°C° 0 mm 3 m/s 760 mmHg 80%
    22:00 -6°C° 0 mm 3 m/s 759 mmHg 80%
    23:00 -6°C° 0 mm 3 m/s 759 mmHg 79%
    Mostrar mais